Location: 22
(39.7117°N, 89.5929°W)
Time: 05:56:57
(UTC-05:00)

A-11 Canister half - Pass Details

Date: 05 February 2023
Orbit: 1526 x 1682 km, 47.3° (Epoch: 01 April)

Event Time Altitude Azimuth Distance (km) Brightness Sun altitude
Exits shadow 06:04:33 - 252° (WSW) 3,880 10.6 -11.6°
Reaches altitude 10° 06:05:09 10° 252° (WSW) 3,690 10.5 -11.4°
Maximum altitude 06:14:26 73° 337° (NNW) 1,593 9.0 -9.7°
Drops below altitude 10° 06:23:51 10° 62° (ENE) 3,739 11.8 -7.9°
Sets 06:26:59 0° 65° (ENE) 4,741 12.5 -7.4°
